Regional Weather Roundup
Issued by NWS

Home | Current Version | Previous Version | Graphics & Text | Print | Product List | Glossary On
Versions: 1 2 3 4 5 6 7 8 9 10 11 12 13 14 15 16 17 18 19 20 21 22 23 24 25 26 27 28 29 30 31 32 33 34 35 36 37 38 39 40 41 42 43 44 45 46 47 48 49 50
001
ASUS43 KBIS 240210
RWRND

NORTH DAKOTA REGIONAL WEATHER ROUNDUP
NATIONAL WEATHER SERVICE BISMARCK ND
900 PM CDT SAT SEP 23 2017

NOTE: "FAIR" INDICATES FEW OR NO CLOUDS BELOW 12,000 FEET WITH NO
SIGNIFICANT WEATHER AND/OR OBSTRUCTIONS TO VISIBILITY.


NDZ001>003-009>011-017-240300-
NORTHWEST NORTH DAKOTA

CITY           SKY/WX    TMP DP  RH WIND       PRES   REMARKS
WILLISTON      LGT RAIN  47  43  86 E3        30.16R
MINOT          LGT RAIN  49  46  90 NW7       30.10S
MINOT AFB      LGT RAIN  49  45  86 N7        30.10S
$$

NDZ018>021-031>035-040>046-240300-
SOUTHWEST NORTH DAKOTA

CITY           SKY/WX    TMP DP  RH WIND       PRES   REMARKS
BISMARCK       LGT RAIN  50  48  93 N14       30.03F
DICKINSON      RAIN      45  44  97 N8        30.06S FOG
GARRISON         N/A     47  45  93 N6        30.08F
HETTINGER ARPT LGT RAIN  45  43  93 N10       30.06S
$$

NDZ004>008-012>016-024-026-027-054-240300-
NORTHEAST NORTH DAKOTA

CITY           SKY/WX    TMP DP  RH WIND       PRES   REMARKS
GRAND FORKS    CLOUDY    58  50  75 N13       30.03F
GRND FRKS AFB  CLOUDY    55  48  76 NE15      30.02F
DEVILS LAKE    CLOUDY    52  45  77 NE12      30.06F
$$

NDZ022-023-025-028>030-036>039-047>053-240300-
SOUTHEAST NORTH DAKOTA

CITY           SKY/WX    TMP DP  RH WIND       PRES   REMARKS
FARGO          RAIN      56  54  93 NE8       30.01F
JAMESTOWN      RAIN      53  51  93 E7        30.00F FOG
$$





USA.gov is the U.S. government's official web portal to all federal, state and local government web resources and services.